Location: Austin, TX
(30.3000°N, 97.7500°W)
Time: 08:41:53
(UTC-05:00)

Cosmos 1666 - Visible Passes

Search period start: 25 March 2017 00:00
Search period end: 04 April 2017 00:00
Orbit: 501 x 526 km, 82.5° (Epoch: 23 March)

Date Brightness Start Highest point End Pass type
(mag) Time Alt. Az. Time Alt. Az. Time Alt. Az.
25 Mar 4.4 05:43:46 10° NNE 05:47:19 35° E 05:50:53 10° SSE visible
26 Mar 4.8 05:28:18 10° NNE 05:31:39 27° E 05:34:59 10° SE visible
27 Mar 5.2 05:12:56 10° NNE 05:15:58 22° E 05:19:00 10° SE visible
27 Mar 4.3 06:48:56 10° NW 06:51:24 16° W 06:53:51 10° SW visible
28 Mar 5.5 04:57:39 10° NE 05:00:16 17° ENE 05:02:53 10° ESE visible
28 Mar 4.0 06:32:53 10° NW 06:35:48 21° W 06:38:43 10° SW visible
29 Mar 5.8 04:42:31 10° NE 04:44:33 14° ENE 04:46:03 12° E visible
29 Mar 3.7 06:16:55 10° NNW 06:20:11 26° W 06:20:50 25° WSW visible
30 Mar 6.1 04:27:52 10° ENE 04:28:27 11° ENE 04:28:27 11° ENE visible
30 Mar 3.9 06:01:04 10° NNW 06:03:19 26° NW 06:03:19 26° NW visible
31 Mar 4.6 05:45:15 10° NNW 05:46:31 19° NNW 05:46:31 19° NNW visible
01 Apr 5.1 05:29:30 10° NNW 05:30:03 14° NNW 05:30:03 14° NNW visible
